User: anonymous   Login
Location: Fort Wayne
(41.1310°N, 85.1290°W)
Time: 08:54:28
(UTC-05:00)
Language:

Oscar 19 - Orbit

View from above orbital plane
View from above orbital plane
View from above satellite
View from above satellite

Ground track
Ground track

The orbit data is extracted from the following two-line orbital elements,

1 20442U 90005G   15057.79062731  .00000174  00000-0  79660-4 0  9993
2 20442 098.5035 355.5497 0012877 112.7180 247.5366 14.32690486311132
Epoch (UTC): 26 February 2015 18:58:30
Eccentricity: 0.0012877
inclination: 98.5035°
perigee height: 773 km
apogee height: 792 km
right ascension of ascending node: 355.5497°
argument of perigee: 112.7180°
revolutions per day: 14.32690486
mean anomaly at epoch: 247.5366°
orbit number at epoch: 31113

The dashed part of the orbit path shows where the satellite is in the earth's shadow,  

DLR